Weather History for KGLH - March, 2013

Change the Weather History Date:

Wednesday, March 20, 2013

  Actual Average Record
Temperature  
Mean Temperature 51 °F 56 °F  
Max Temperature 62 °F 66 °F 87 °F (1932)
Min Temperature 40 °F 45 °F 20 °F (1965)
Degree Days  
Heating Degree Days 14 10  
Month to date heating degree days 293 242  
Since 1 July heating degree days 2296 2551  
Cooling Degree Days 0 1  
Month to date cooling degree days 2 6  
Year to date cooling degree days 12 11  
Growing Degree Days 2 (Base 50)    
Moisture  
Dew Point 30 °F    
Average Humidity 48    
Maximum Humidity 70    
Minimum Humidity 25    
Precipitation  
Precipitation 0.00 in 0.15 in 2.82 in (1980)
Month to date precipitation 1.11 2.64  
Year to date precipitation 13.57 12.63  
Sea Level Pressure  
Sea Level Pressure 30.18 in    
Wind  
Wind Speed 9 mph (North)    
Max Wind Speed 21 mph    
Max Gust Speed 25 mph    
Visibility 10 miles    
Events      
T = Trace of Precipitation, MM = Missing Value Source: NWS Daily Summary

Daily Weather History Graph

Daily Weather History Graph

Search for Another Location

Airport or City:

Trip Planner

Search our weather history database for the weather conditions in past years. The results will help you decide how hot, cold, wet, or windy it might be!

Date:

Astronomy

Mar. 20, 2013 Rise Set
Actual Time 7:07 AM CDT 7:15 PM CDT
Civil Twilight 6:42 AM CDT 7:40 PM CDT
Nautical Twilight 6:13 AM CDT 8:09 PM CDT
Astronomical Twilight 5:44 AM CDT 8:38 PM CDT
Moon 1:06 PM CDT (3/20) 2:31 AM CDT (3/20)
Length of Visible Light 12h 58m
Length of Day
12h 08m
First Quarter, 59% of the Moon is Illuminated
Mar 20
First Quarter
Mar 27
Full
Apr 2
Last Quarter
Apr 10
New
Apr 18
First Quarter

Hourly Weather History & Observations

Time (CDT) Temp. Windchill Dew Point Humidity Pressure Visibility Wind Dir Wind Speed Gust Speed Precip Events Conditions
12:53 AM 50.0 °F - 33.1 °F 52% 30.17 in 10.0 mi NNE 13.8 mph - N/A   Clear
1:53 AM 48.9 °F - 33.1 °F 54% 30.19 in 10.0 mi NNE 11.5 mph - N/A   Clear
2:53 AM 48.9 °F - 30.9 °F 50% 30.19 in 10.0 mi NNE 12.7 mph - N/A   Clear
3:53 AM 46.9 °F - 30.9 °F 54% 30.19 in 10.0 mi NNE 10.4 mph - N/A   Clear
4:53 AM 45.0 °F 41.2 °F 32.0 °F 60% 30.19 in 10.0 mi NNE 6.9 mph - N/A   Clear
5:53 AM 44.1 °F 41.5 °F 32.0 °F 63% 30.20 in 10.0 mi NNE 4.6 mph - N/A   Clear
6:53 AM 42.1 °F 39.2 °F 33.1 °F 70% 30.22 in 10.0 mi NNE 4.6 mph - N/A   Clear
7:53 AM 42.1 °F 37.7 °F 33.1 °F 70% 30.23 in 10.0 mi NNE 6.9 mph - N/A   Clear
8:53 AM 46.9 °F - 33.1 °F 59% 30.26 in 10.0 mi North 6.9 mph - N/A   Clear
9:53 AM 53.6 °F - 28.4 °F 38% 30.25 in 10.0 mi NNE 6.9 mph - N/A   Clear
10:53 AM 57.0 °F - 27.0 °F 32% 30.27 in 10.0 mi NE 5.8 mph - N/A   Clear
11:53 AM 59.0 °F - 28.0 °F 31% 30.27 in 10.0 mi NNE 9.2 mph - N/A   Clear
12:53 PM 60.1 °F - 27.0 °F 28% 30.24 in 10.0 mi North 9.2 mph 17.3 mph N/A   Clear
1:53 PM 62.1 °F - 28.0 °F 28% 30.20 in 10.0 mi NNW 12.7 mph 19.6 mph N/A   Clear
2:53 PM 62.1 °F - 26.1 °F 25% 30.18 in 10.0 mi NW 16.1 mph 24.2 mph N/A   Clear
3:53 PM 61.0 °F - 28.9 °F 30% 30.16 in 10.0 mi NNW 15.0 mph 21.9 mph N/A   Clear
4:53 PM 60.1 °F - 30.9 °F 33% 30.15 in 10.0 mi NNW 15.0 mph - N/A   Clear
5:53 PM 59.0 °F - 28.0 °F 31% 30.12 in 10.0 mi NW 12.7 mph 21.9 mph N/A   Clear
6:53 PM 55.0 °F - 30.9 °F 40% 30.12 in 10.0 mi North 11.5 mph - N/A   Clear
7:53 PM 50.0 °F - 32.0 °F 50% 30.12 in 10.0 mi North 6.9 mph - N/A   Clear
8:53 PM 48.9 °F - 32.0 °F 52% 30.13 in 10.0 mi North 5.8 mph - N/A   Clear
9:53 PM 46.9 °F - 32.0 °F 56% 30.12 in 10.0 mi NNE 3.5 mph - N/A   Clear
10:53 PM 46.0 °F 43.9 °F 30.0 °F 54% 30.12 in 10.0 mi NE 4.6 mph - N/A   Clear
11:53 PM 43.0 °F 39.5 °F 30.0 °F 60% 30.12 in 10.0 mi NNE 5.8 mph - N/A   Clear